Regional Weather Roundup
Issued by NWS

Home | Current Version | Previous Version | Graphics & Text | Print | Product List | Glossary On
Versions: 1 2 3 4 5 6 7 8 9 10 11 12 13 14 15 16 17 18 19 20 21 22 23 24 25 26 27 28 29 30 31 32 33 34 35 36 37 38 39 40 41 42 43 44 45 46 47 48 49 50
000
ASUS43 KMKX 260400
RWRWI

WISCONSIN REGIONAL WEATHER ROUNDUP
NATIONAL WEATHER SERVICE MILWAUKEE/SULLIVAN WI
1000 PM CST TUE NOV 25 2014

NOTE: "FAIR" INDICATES FEW OR NO CLOUDS BELOW 12,000 FEET WITH NO
SIGNIFICANT WEATHER AND/OR OBSTRUCTIONS TO VISIBILITY.

WIZ001-002-006>008-014>016-023>028-260500-
NORTHWEST WISCONSIN

CITY           SKY/WX    TMP DP  RH WIND       PRES   REMARKS
SUPERIOR ARPT  CLOUDY    19  13  78 CALM      30.08R
ASHLAND        MOCLDY    11   8  88 S3        30.10R
HAYWARD        CLOUDY    17  13  84 CALM      30.06R
SIREN          CLOUDY    21  15  79 CALM      30.05S
CUMBERLAND     CLOUDY    21  16  79 SE3       30.03S
RICE LAKE      CLOUDY    22  16  78 SE5       30.06S WCI  15
CHETEK         CLOUDY    21  15  78 CALM      30.06R
LADYSMITH      CLOUDY    20  16  81 CALM      30.07R
EAU CLAIRE     NOT AVBL
MENOMONIE      CLOUDY    24  17  74 SE3       30.06R
NEW RICHMOND   CLOUDY    24  17  76 S5        30.04S WCI  18
OSCEOLA        CLOUDY    24  18  78 CALM      30.08R
$$

WIZ003>005-009-010-017-018-260500-
NORTH CENTRAL WISCONSIN

CITY           SKY/WX    TMP DP  RH WIND       PRES   REMARKS
MANITOWISH WTR MOCLDY     1  -2  87 CALM      30.03S
ARBOR VITAE    CLEAR      5   2  86 CALM      30.04R
WOODRUFF       CLEAR      5   2  86 CALM      30.04R
RHINELANDER    CLEAR      2  -2  83 CALM      30.05R
EAGLE RIVER    CLEAR      3  -2  81 CALM      30.04R
LAND O LAKES   CLEAR     -2  -6  85 CALM      30.05R
PHILLIPS       CLOUDY    12  10  91 CALM      30.03S
TOMAHAWK       PTCLDY     1  -3  86 CALM      30.06R
MEDFORD        CLOUDY    19  15  85 CALM      30.05R
MERRILL        PTCLDY     5   2  88 CALM      30.07R
$$

WIZ029-030-035-036-043>047-260500-
CENTRAL WISCONSIN

CITY           SKY/WX    TMP DP  RH WIND       PRES   REMARKS
WAUSAU         PTCLDY    11   8  88 E5        30.08R WCI   3
MOSINEE        MOCLDY    10  10 100 CALM      30.09R
MARSHFIELD     CLOUDY    21  15  78 SW7       30.07R WCI  12
STEVENS POINT  PTCLDY     6   4  90 CALM      30.10R
WAUPACA        FOG       11   8  87 CALM      30.13R VSB 3/4
WAUTOMA        NOT AVBL
WISC RAPIDS    CLOUDY    18  14  84 CALM      30.12R
CAMP DOUGLAS   NOT AVBL
$$

WIZ011>013-019>022-031-037>040-048>050-260500-
NORTHEAST WISCONSIN

CITY           SKY/WX    TMP DP  RH WIND       PRES   REMARKS
ANTIGO         MOCLDY    -4  -8  85 CALM      30.06R FOG
SHAWANO        CLEAR     15  13  90 CALM      30.13R
OCONTO         CLOUDY    18  17  97 CALM      30.15R
STURGEON BAY   CLOUDY    21  14  73 SW6       30.15R WCI  14
GREEN BAY      CLOUDY    18  14  84 SW3       30.15S
MANITOWOC      NOT AVBL
APPLETON       CLEAR     16  14  93 CALM      30.13R
CLINTONVILLE   CLEAR      9   3  78 CALM      30.13R
OSHKOSH        CLEAR     15  12  88 S3        30.14R
$$

WIZ032>034-041-042-053>061-260500-
SOUTHWEST WISCONSIN

CITY           SKY/WX    TMP DP  RH WIND       PRES   REMARKS
LA CROSSE      MOCLDY    19  14  81 SE3       30.12R
SPARTA         CLOUDY    19  14  80 CALM      30.12R
VIROQUA        PTCLDY    15  12  89 S6        30.07R WCI   6
BOSCOBEL       CLEAR     10   6  84 CALM      30.15R
PRAIRIE DU CHI CLEAR     12   9  87 CALM      30.13R
PLATTEVILLE    CLEAR     15  13  92 CALM      30.13R
$$

WIZ056-057-062-063-064-067-068-260500-
SOUTH CENTRAL WISCONSIN

CITY           SKY/WX    TMP DP  RH WIND       PRES   REMARKS
REEDSBURG      CLEAR     11   9  92 CALM      30.12R
BARABOO/DELLS  CLEAR     11   9  89 CALM      30.11R FOG
LONE ROCK      NOT AVBL
MINERAL POINT  FLURRIES  18  14  86 S3        30.10R
MADISON        CLEAR     17  13  84 S9        30.13R WCI   6
MIDDLETON      CLEAR      6   2  83 CALM      30.13R
WATERTOWN      CLEAR     15  14  96 SE6       30.14S WCI   6
MONROE         CLEAR     12  10  92 S9        30.12R WCI   0
JANESVILLE     PTCLDY    14  10  85 CALM      30.15S
$$

WIZ051-052-058>065-066-070>072-260500-
SOUTHEAST WISCONSIN

CITY           SKY/WX    TMP DP  RH WIND       PRES   REMARKS
MILWAUKEE      MOCLDY    19  14  81 SW5       30.17S WCI  12
WAUKESHA       MOCLDY    18  14  86 S3        30.16S
MILWAUKEE/TIMM CLOUDY    21  16  79 W3        30.17S
RACINE         CLOUDY    21  15  78 SW6       30.19R WCI  13
BURLINGTON     CLEAR     14  12  93 S3        30.16F
KENOSHA        CLOUDY    19  15  84 SW3       30.18S
FOND DU LAC    CLEAR     16  13  88 S6        30.14R WCI   7
SHEBOYGAN      CLOUDY    20  15  81 SW5       30.16R WCI  13
WEST BEND      CLOUDY    21  16  79 CALM      30.14F
JUNEAU         CLOUDY    16  14  90 S7        30.14S WCI   7
$$

LSZ147-162-260500-
LAKE SUPERIOR

STATION/POSITION TIME  TEMP    WIND        PRES    WAVE
                       AIR SEA DIR/SP/G            HT/PER
                 (UTC) (F)     (DEG/KT/KT) (MB)    (FT/S)
DEVILS ISLAND    0300   23     230/ 13/ 17 1018.9R
PORT WING        0340   16     130/  2/  4 1018.6R
SAXON HARBOR     0300   12     200/  2/  9 1018.6
$$

LMZ867-665-643>646-260500-
LAKE MICHIGAN

STATION/POSITION TIME  TEMP    WIND        PRES    WAVE
                       AIR SEA DIR/SP/G            HT/PER
                 (UTC) (F)     (DEG/KT/KT) (MB)    (FT/S)
CHAMBERS ISLAND  0300   23     230/  6/ 11 1020.0R
N MID LAKE BUOY  0250   28 42  230/  6/ 10 1020.4R   1/ 6
NORTHPORT PIER   0303   25     190/  1/  6 1020.0R
ALGOMA LAKESHORE 0313          260/  7/ 10   N/A
KEWAUNEE LAKESHO 0300   21     270/  3/  5 1019.9R
SHEBOYGAN LAKESH 0300   21 36  250/  6/  7 1022.6R
PORT WASHINGTON  0340   23     240/  5/  7 1022.4R
MILWAUKEE LAKESH 0300   22     250/  6/  8   N/A
S MID LAKE BUOY  0250   28 42  230/  8/ 12 1022.4R   2/ 6
KENOSHA   LAKESH 0300   21     210/  7/  9 1021.7S
$$

TC  - TEMPERATURE IN CELSIUS
VSB - VISIBILITY IN STATUTE MILES
WCI - WIND CHILL INDEX
HX  - HEAT INDEX




USA.gov is the U.S. government's official web portal to all federal, state and local government web resources and services.